[[[{"header":{"parameterUnit":"kt","parameterCategory":2,"dx":1,"dy":1,"la1":30.253999710083008,"la2":30.299108505249023,"lo1":-89.0895004272461,"lo2":-89.04439544677734,"nx":28,"ny":28,"refTime":"2022-10-01T21:00:00:Z","depth":"0","parameterNumber":2,"parameterNumberName":"U-component_of_CURRENTS"},"data":[0.775,0.7613,0.7553,0.7227,0.7075,0.6726,0.6573,0.6336,0.6199,0.5778,0.5451,0.5401,0.5167,0.4701,0.4238,0.416,0.3985,0.3694,0.3934,0.4565,0.4686,0.4801,0.4512,0.3656,0.3655,0.2784,0.2777,0.2771,0.7835,0.7757,0.7689,0.7468,0.7297,0.7285,0.7119,0.6886,0.6739,0.6731,0.6718,0.6355,0.6074,0.5868,0.5364,0.5133,0.506,0.5001,0.4739,0.4735,0.5628,0.5337,0.4643,0.4643,0.4643,0.4644,0.4644,0.4644,0.7923,0.7888,0.7738,0.7601,0.7511,0.7389,0.7229,0.7154,0.7107,0.6958,0.7228,0.7146,0.6943,0.6917,0.6927,0.6424,0.668,0.6244,0.6282,0.621,0.5821,0.6443,0.6451,0.6457,0.6462,0.6467,0.6472,0,0.7864,0.7844,0.7715,0.7599,0.7514,0.7393,0.7275,0.7273,0.7157,0.7223,0.7297,0.7419,0.7552,0.7428,0.75,0.7599,0.736,0.7616,0.7466,0.66,0.6071,0.5913,0.6977,0.7198,0.7208,0.7216,0.7222,0.7227,0.7762,0.7748,0.7562,0.7492,0.7366,0.7294,0.7223,0.7115,0.7097,0.717,0.7235,0.7466,0.7594,0.7971,0.8,0.8196,0.8116,0.7867,0.7752,0.724,0.7191,0.7014,0.6861,0.7342,0.7327,0.7315,0.7306,0,0.7718,0.7517,0.7426,0.72,0.715,0.7149,0.6966,0.6995,0.7014,0.712,0.7188,0.7352,0.7611,0.7822,0.8342,0.8339,0.8336,0.8625,0.7864,0.7789,0.7292,0.7223,0.7267,0.7098,0.8506,0.8499,0.8493,0,0.7453,0.7409,0.7096,0.7043,0.7039,0.6819,0.6886,0.6844,0.6886,0.694,0.7054,0.7215,0.7566,0.7825,0.8005,0.8193,0.8543,0.8266,0.8284,0.7838,0.7748,0.7576,0.7483,0.8913,0.8911,0.8909,0.8908,0,0.7239,0.7033,0.6957,0.6876,0.6607,0.6618,0.6533,0.6541,0.6555,0.6757,0.6815,0.7169,0.7333,0.7724,0.7823,0.7785,0.835,0.8358,0.8186,0.8146,0.7823,0.773,0.7908,0.8905,0.8904,0.8904,0.8903,0,0.6914,0.6748,0.6691,0.6452,0.6412,0.6407,0.6379,0.6391,0.6482,0.6493,0.6685,0.6745,0.7045,0.6996,0.7513,0.7339,0.7541,0.766,0.7678,0.7303,0.7127,0.6893,0.7152,0.6899,0.7668,0.766,0.7652,0,0.6717,0.6571,0.6332,0.6314,0.6226,0.6027,0.6069,0.604,0.6034,0.6159,0.6266,0.6429,0.6344,0.6447,0.6732,0.6896,0.7181,0.6881,0.7387,0.7396,0.7015,0.7365,0.6878,0.705,0.7547,0.7558,0.7566,0,0.6523,0.6102,0.6121,0.602,0.5803,0.5767,0.5789,0.5777,0.5831,0.5853,0.6021,0.6154,0.6189,0.6256,0.6294,0.6563,0.6972,0.6552,0.6568,0.6624,0.7656,0.7253,0.7284,0.7191,0.7207,0.7219,0.7482,0,0.6196,0.6025,0.5999,0.575,0.5712,0.5692,0.5555,0.5558,0.548,0.5477,0.5655,0.5723,0.5867,0.5889,0.5844,0.6244,0.6168,0.6232,0.6178,0.6447,0.6495,0.6562,0.5722,0.5718,0.5715,0.5713,0,0,0.6131,0.5853,0.5571,0.5508,0.5471,0.5286,0.5295,0.529,0.525,0.5287,0.5203,0.5412,0.5417,0.5675,0.5725,0.5727,0.5858,0.5699,0.6251,0.6309,0.6365,0.6431,0.6498,0.5707,0.5706,0.5705,0.5704,0,0.5945,0.5622,0.5525,0.5445,0.5325,0.5252,0.522,0.5121,0.5123,0.5167,0.515,0.524,0.5299,0.5413,0.5463,0.5665,0.571,0.5673,0.5826,0.6212,0.6274,0.6331,0.6407,0.6469,0.5697,0.5697,0.5698,0,0.5795,0.5549,0.5434,0.5166,0.5127,0.5106,0.4991,0.4982,0.5009,0.4929,0.5001,0.5023,0.5074,0.5221,0.5268,0.5221,0.5598,0.5395,0.5411,0.5428,0.5823,0.5892,0.5954,0.5172,0.5171,0.5169,0,0,0.5698,0.5467,0.5238,0.5115,0.5064,0.4991,0.5007,0.4952,0.4924,0.4929,0.4922,0.4949,0.5028,0.5058,0.5118,0.5241,0.5337,0.5333,0.5358,0.5378,0.5406,0.5802,0.5867,0.5163,0.5163,0.5163,0,0,0.5704,0.5295,0.518,0.4966,0.4933,0.4873,0.4942,0.4871,0.4903,0.4881,0.4847,0.485,0.4947,0.4945,0.4869,0.5116,0.5012,0.5027,0.5126,0.5156,0.518,0.5199,0.4815,0,0,0,0,0,0.542,0.5316,0.5211,0.515,0.49,0.4887,0.4899,0.4879,0.4799,0.4848,0.4833,0.4791,0.4929,0.486,0.4871,0.4989,0.5089,0.5102,0.5114,0.5269,0.5301,0.5329,0,0,0,0,0,0,0.5394,0.5298,0.5222,0.5102,0.5054,0.4885,0.4804,0.4804,0.4796,0.4786,0.4798,0.4794,0.48,0.4853,0.4863,0.4977,0.4812,0.5094,0.5105,0.5115,0.528,0.5307,0.5329,0,0,0,0,0,0.5374,0.5299,0.4811,0.5119,0.5077,0.5042,0.4801,0.4799,0.4797,0.4805,0.4801,0.4769,0.4803,0.4808,0.4858,0.4974,0.4804,0.4808,0.5101,0.511,0.5118,0.5293,0,0,0,0,0,0,0.536,0.5399,0.4814,0.4817,0.5074,0.506,0.5018,0.4796,0.4816,0.4811,0.4778,0.4771,0.4807,0.481,0.4814,0.4977,0.4799,0.4802,0.4805,0.5108,0.5115,0.5121,0,0,0,0,0,0,0.5442,0.5396,0.4816,0.4756,0.4753,0.5077,0.5037,0.5087,0.4815,0.479,0.4783,0.4774,0.477,0.4812,0.4815,0.4905,0.4794,0.4798,0.48,0.4802,0.5114,0.5119,0,0,0,0,0,0,0.5431,0.5393,0.4756,0.4753,0.4751,0.4796,0.5133,0.486,0.4797,0.479,0.4784,0.4778,0.4771,0.4775,0.4816,0.4905,0.4905,0.4794,0.4797,0.4799,0.48,0,0,0,0,0,0,0,0.5422,0.5576,0.4779,0.4752,0.4749,0.4844,0.4846,0.4849,0.4795,0.479,0.4785,0.4781,0.4773,0.4777,0.4781,0.4906,0,0,0.4794,0.4796,0,0,0,0,0,0,0,0,0.5603,0.5582,0.4779,0.4779,0.4779,0.4844,0.4846,0.4848,0.4794,0.479,0.4786,0.4783,0.4774,0.4777,0.478,0,0,0,0,0,0,0,0,0,0,0,0,0,0,0,0.4779,0.4779,0,0.4844,0.4846,0.4848,0.4794,0.4791,0.4787,0.4784,0.4775,0.4777,0.478,0,0,0,0,0,0,0,0,0,0,0,0,0,0,0,0,0,0,0,0,0,0,0,0,0,0,0,0,0,0,0,0,0,0,0,0,0,0,0,0,0,0,0,0,0,0,0,0,0,0,0,0,0,0,0,0,0,0,0,0,0,0,0,0,0,0,0,0,0]}],[{"header":{"parameterUnit":"kt","parameterCategory":2,"dx":1,"dy":1,"la1":30.253999710083008,"la2":30.299108505249023,"lo1":-89.0895004272461,"lo2":-89.04439544677734,"nx":28,"ny":28,"refTime":"2022-10-01T21:00:00:Z","depth":"0","parameterNumber":3,"parameterNumberName":"V-component_of_CURRENTS"},"data":[-0.1072,-0.0566,-0.0305,0.0456,0.0828,0.1262,0.1469,0.1683,0.197,0.2241,0.2414,0.2558,0.2225,0.081,-0.0127,-0.0335,-0.0445,-0.0615,-0.0542,-0.0189,-0.0117,-0.0048,-0.0176,-0.0738,-0.0739,-0.1012,-0.1016,-0.1018,-0.1273,-0.0945,-0.0431,0.0204,0.0663,0.0867,0.1401,0.1614,0.1934,0.2356,0.2571,0.2524,0.2005,0.1586,0.0719,0.0285,0.0235,0.0096,0.0084,0.0119,0.0613,0.0494,0.0065,0.0065,0.0066,0.0066,0.0066,0.0066,-0.1575,-0.1276,-0.0784,-0.0209,0.0258,0.0731,0.1049,0.1486,0.195,0.2444,0.2586,0.2836,0.2515,0.2048,0.1726,0.1074,0.1234,0.0863,0.0821,0.0837,0.0688,0.0985,0.0956,0.0958,0.096,0.0962,0.0964,0,-0.1753,-0.158,-0.1148,-0.056,-0.0117,0.0405,0.0947,0.1235,0.1813,0.2187,0.2607,0.2787,0.2772,0.251,0.2157,0.1928,0.1683,0.1722,0.1588,0.1145,0.0875,0.0724,0.1287,0.1536,0.1542,0.1546,0.1549,0.1552,-0.2014,-0.1758,-0.1117,-0.0805,-0.0502,0.0037,0.0451,0.0973,0.1388,0.2076,0.2362,0.2668,0.286,0.2812,0.2525,0.2263,0.2128,0.1873,0.1763,0.139,0.12,0.1138,0.1079,0.1613,0.1605,0.1599,0.1593,0,-0.2144,-0.1842,-0.1327,-0.0723,-0.0534,-0.0159,0.051,0.0943,0.1377,0.1971,0.2147,0.2602,0.2718,0.2703,0.2786,0.2547,0.2318,0.234,0.1986,0.1844,0.1318,0.1211,0.1363,0.1306,0.2051,0.2045,0.2041,0,-0.2174,-0.1849,-0.134,-0.108,-0.057,-0.0221,0.0342,0.0707,0.1261,0.1718,0.1992,0.2343,0.2467,0.2587,0.2434,0.2306,0.2577,0.21,0.1995,0.1824,0.1764,0.1526,0.1392,0.2549,0.2549,0.2549,0.2549,0,-0.2271,-0.1765,-0.1361,-0.1174,-0.0551,-0.0297,0.001,0.0539,0.0895,0.1439,0.1714,0.2087,0.2272,0.2355,0.2209,0.2121,0.2408,0.2274,0.1932,0.1894,0.169,0.1614,0.1951,0.2549,0.2549,0.2549,0.2549,0,-0.2221,-0.1894,-0.1468,-0.0869,-0.0733,-0.0516,0.0097,0.0361,0.0882,0.1066,0.1411,0.1508,0.1881,0.1655,0.1936,0.1796,0.1724,0.1697,0.1697,0.1305,0.095,0.0776,0.1234,0.1043,0.1421,0.1415,0.1409,0,-0.2266,-0.1851,-0.1631,-0.1241,-0.0959,-0.0711,-0.0411,-0.01,0.0134,0.0493,0.0705,0.099,0.0818,0.0957,0.1171,0.1196,0.1374,0.1183,0.1148,0.1144,0.0804,0.1316,0.1139,0.1147,0.1327,0.1336,0.1342,0,-0.2306,-0.1794,-0.177,-0.1511,-0.1207,-0.1063,-0.0776,-0.0436,-0.0154,-0.007,0.0304,0.0514,0.0552,0.0624,0.0632,0.084,0.1198,0.0626,0.0626,0.0573,0.1526,0.1222,0.1244,0.1217,0.1232,0.1243,0.1277,0,-0.212,-0.1862,-0.1786,-0.1465,-0.1344,-0.1207,-0.1002,-0.0861,-0.079,-0.069,-0.035,-0.0334,-0.0144,-0.0072,-0.0156,0.0325,0.0118,0.0052,-0.0168,0.0257,0.0189,0.0242,-0.052,-0.0529,-0.0536,-0.0543,0,0,-0.2225,-0.1909,-0.177,-0.1611,-0.1494,-0.1447,-0.129,-0.1221,-0.1187,-0.1046,-0.119,-0.0905,-0.0937,-0.055,-0.0416,-0.0473,-0.0494,-0.0559,0.002,0.0083,0.0142,0.0104,0.0163,-0.0556,-0.0559,-0.0561,-0.0564,0,-0.2145,-0.1897,-0.1767,-0.1661,-0.155,-0.1502,-0.1452,-0.1414,-0.1379,-0.1273,-0.1318,-0.1158,-0.1181,-0.1046,-0.0996,-0.0612,-0.0797,-0.0617,-0.0282,-0.0052,0.0021,0.0085,0.0063,0.0122,-0.0582,-0.0581,-0.058,0,-0.2132,-0.1962,-0.1875,-0.1636,-0.1626,-0.1509,-0.1626,-0.1603,-0.1493,-0.1713,-0.1615,-0.1621,-0.1629,-0.1456,-0.1396,-0.1518,-0.1084,-0.1267,-0.1227,-0.1198,-0.0975,-0.089,-0.0815,-0.1793,-0.1796,-0.1799,0,0,-0.2096,-0.1912,-0.1761,-0.1619,-0.1563,-0.1599,-0.1623,-0.1654,-0.1678,-0.1708,-0.1775,-0.1786,-0.1708,-0.1698,-0.17,-0.1566,-0.1604,-0.1406,-0.1349,-0.1302,-0.1246,-0.1012,-0.093,-0.1811,-0.1811,-0.1812,0,0,-0.216,-0.1909,-0.1838,-0.1625,-0.1594,-0.1657,-0.1692,-0.1724,-0.177,-0.1785,-0.1922,-0.1946,-0.1809,-0.1906,-0.2048,-0.1721,-0.1963,-0.1939,-0.165,-0.1582,-0.1526,-0.146,-0.2262,0,0,0,0,0,-0.2045,-0.1902,-0.1834,-0.1788,-0.1646,-0.1623,-0.1643,-0.1766,-0.182,-0.1816,-0.187,-0.201,-0.1969,-0.2102,-0.2121,-0.1901,-0.1967,-0.1939,-0.1913,-0.1511,-0.1437,-0.1374,0,0,0,0,0,0,-0.2026,-0.1951,-0.1846,-0.185,-0.1828,-0.1627,-0.1763,-0.1797,-0.1825,-0.1845,-0.1989,-0.2016,-0.2133,-0.2104,-0.2119,-0.1903,-0.2258,-0.1956,-0.1933,-0.1912,-0.1486,-0.1425,-0.1373,0,0,0,0,0,-0.2013,-0.1954,-0.162,-0.1868,-0.1847,-0.197,-0.1766,-0.1796,-0.1832,-0.1979,-0.2009,-0.1915,-0.2129,-0.2149,-0.2114,-0.1889,-0.2249,-0.2254,-0.1941,-0.1922,-0.1906,-0.1456,0,0,0,0,0,0,-0.2003,-0.2069,-0.1628,-0.1641,-0.1892,-0.1992,-0.198,-0.1794,-0.1969,-0.1995,-0.1913,-0.1926,-0.2125,-0.2142,-0.2156,-0.1869,-0.2242,-0.2247,-0.225,-0.1927,-0.1912,-0.19,0,0,0,0,0,0,-0.2104,-0.2072,-0.1635,-0.1655,-0.1672,-0.2012,-0.1998,-0.2032,-0.1968,-0.1896,-0.1911,-0.1916,-0.2087,-0.2136,-0.2148,-0.2204,-0.2236,-0.2241,-0.2244,-0.2246,-0.1915,-0.1904,0,0,0,0,0,0,-0.21,-0.2075,-0.1654,-0.1666,-0.1682,-0.1839,-0.2056,-0.1898,-0.1989,-0.1887,-0.1998,-0.2002,-0.2077,-0.2094,-0.2142,-0.2192,-0.2201,-0.2236,-0.2239,-0.2242,-0.2243,0,0,0,0,0,0,0,-0.2098,-0.2146,-0.154,-0.1676,-0.1689,-0.1751,-0.1756,-0.1761,-0.199,-0.1993,-0.1997,-0.2,-0.2209,-0.2214,-0.222,-0.2182,0,0,-0.2236,-0.2238,0,0,0,0,0,0,0,0,-0.2169,-0.2152,-0.154,-0.1542,-0.1544,-0.1752,-0.1756,-0.176,-0.199,-0.1993,-0.1996,-0.1999,-0.2211,-0.2215,-0.2219,0,0,0,0,0,0,0,0,0,0,0,0,0,0,0,-0.154,-0.1542,0,-0.1752,-0.1755,-0.1759,-0.1991,-0.1993,-0.1995,-0.1998,-0.2212,-0.2215,-0.2219,0,0,0,0,0,0,0,0,0,0,0,0,0,0,0,0,0,0,0,0,0,0,0,0,0,0,0,0,0,0,0,0,0,0,0,0,0,0,0,0,0,0,0,0,0,0,0,0,0,0,0,0,0,0,0,0,0,0,0,0,0,0,0,0,0,0,0,0,0]}]],[[{"header":{"parameterUnit":"kt","parameterCategory":2,"dx":1,"dy":1,"la1":30.253999710083008,"la2":30.299108505249023,"lo1":-89.0895004272461,"lo2":-89.04439544677734,"nx":28,"ny":28,"refTime":"2022-10-01T21:00:00:Z","depth":"2","parameterNumber":2,"parameterNumberName":"U-component_of_CURRENTS"},"data":[0.5381,0.5487,0.5473,0.5334,0.5356,0.5071,0.4867,0.4431,0.4195,0.3587,0.332,0.3314,0.3394,0.2797,0.2675,0.2437,0.2987,0.2312,0.316,0.4027,0.4153,0.4504,0.4259,0,0,0,0,0,0.5286,0.5365,0.5616,0.5693,0.5676,0.5873,0.5794,0.5469,0.5067,0.499,0.4687,0.4021,0.361,0.3516,0.3091,0.2896,0.3228,0.2769,0.338,0.3521,0.365,0.3398,0.2247,0.2243,0.224,0.2236,0,0,0.5125,0.529,0.5467,0.5704,0.5913,0.5902,0.5839,0.5884,0.5852,0.5598,0.5773,0.5322,0.5224,0.4285,0.4041,0.3885,0.428,0.4266,0.4348,0.4442,0.4199,0.3745,0.3275,0.3278,0.3282,0.3285,0.3287,0,0.4895,0.4958,0.5217,0.5503,0.5712,0.5936,0.6131,0.6186,0.6323,0.6438,0.6338,0.6211,0.5925,0.5508,0.5026,0.4925,0.5552,0.5119,0.61,0.5748,0.5326,0.5197,0.5224,0.5215,0.523,0.5241,0.5249,0.5255,0.4477,0.4706,0.5057,0.5235,0.5377,0.5724,0.5888,0.611,0.6284,0.6528,0.6637,0.6694,0.6574,0.641,0.625,0.6022,0.6354,0.5506,0.5622,0.6142,0.6003,0.5991,0.5976,0.5417,0.5396,0.5379,0.5366,0,0.4223,0.4358,0.4767,0.5077,0.5177,0.5474,0.574,0.5995,0.6239,0.6563,0.6702,0.6975,0.7001,0.7057,0.7347,0.7139,0.7111,0.685,0.6323,0.6126,0.6134,0.6089,0.6234,0.6207,0.6184,0.6165,0.6149,0,0.3887,0.419,0.4406,0.4629,0.5024,0.5149,0.5571,0.581,0.612,0.6383,0.6676,0.6879,0.7281,0.7361,0.7414,0.7152,0.767,0.6991,0.6859,0.666,0.655,0.7527,0.747,0.8018,0.8019,0.8019,0.802,0,0.3606,0.3913,0.4262,0.4385,0.4727,0.4925,0.5095,0.5482,0.5719,0.6225,0.6403,0.6896,0.7073,0.7353,0.7284,0.733,0.7588,0.767,0.6906,0.6832,0.6669,0.6551,0.8021,0.8021,0.8021,0.8021,0.8021,0,0.3364,0.3567,0.3933,0.4312,0.4402,0.4567,0.506,0.5264,0.5687,0.5865,0.6225,0.6373,0.6814,0.6666,0.7131,0.6996,0.7007,0.7061,0.7061,0.6341,0.5983,0.5604,0.5819,0.6753,0.6745,0.6739,0.6733,0,0.3193,0.3496,0.3523,0.3885,0.4117,0.423,0.4465,0.4756,0.498,0.5334,0.5592,0.5958,0.5893,0.6072,0.633,0.6546,0.6697,0.6503,0.6679,0.668,0.5852,0.6147,0.5882,0.5755,0.6647,0.6656,0.6663,0,0.3063,0.3277,0.3314,0.3524,0.3682,0.3815,0.406,0.4383,0.4655,0.4831,0.5215,0.5593,0.5684,0.5853,0.5947,0.619,0.6505,0.6102,0.6113,0.5949,0.692,0.611,0.6086,0.6627,0.6644,0.6657,0.6595,0,0.3125,0.324,0.3262,0.3433,0.3522,0.3642,0.3799,0.3968,0.4086,0.4245,0.4686,0.4856,0.5208,0.5286,0.5316,0.5829,0.5652,0.569,0.5518,0.588,0.5774,0.5828,0.514,0.5137,0.5134,0.5132,0,0,0.305,0.3152,0.3121,0.3218,0.3327,0.3359,0.3512,0.3613,0.3798,0.3984,0.39,0.4463,0.4565,0.5026,0.5171,0.5179,0.5205,0.5102,0.5681,0.5741,0.5797,0.5719,0.5774,0.5127,0.5126,0.5125,0.5124,0,0.3064,0.3074,0.3103,0.3175,0.3267,0.3327,0.3359,0.3461,0.3571,0.3786,0.3921,0.4182,0.4371,0.4613,0.4738,0.5095,0.5007,0.5131,0.534,0.5643,0.5706,0.5764,0.5698,0.575,0.5117,0.5117,0.5118,0,0.307,0.3093,0.3089,0.3152,0.3197,0.3304,0.3262,0.3319,0.3475,0.3467,0.372,0.3855,0.4036,0.4304,0.4423,0.4325,0.4793,0.4623,0.4645,0.4735,0.5044,0.5117,0.5183,0.4326,0.4322,0.4319,0,0,0.3088,0.3084,0.3146,0.3158,0.3187,0.3244,0.3267,0.3314,0.3408,0.3459,0.3559,0.3731,0.3942,0.4016,0.4185,0.4362,0.4409,0.4519,0.4557,0.4587,0.469,0.5006,0.5079,0.4307,0.4306,0.4306,0,0,0.3084,0.3109,0.316,0.3161,0.3224,0.3251,0.3265,0.3302,0.3425,0.3462,0.3517,0.3548,0.3816,0.3835,0.3665,0.4134,0.3997,0.403,0.4062,0.4108,0.4146,0.423,0.358,0,0,0,0,0,0.3118,0.3103,0.3149,0.3157,0.3204,0.324,0.3249,0.3283,0.33,0.3332,0.347,0.3416,0.3821,0.3668,0.3685,0.3849,0.4141,0.417,0.4198,0.429,0.4339,0.4382,0,0,0,0,0,0,0.3121,0.313,0.3149,0.3172,0.3183,0.3239,0.3242,0.3252,0.3298,0.3305,0.34,0.3417,0.3449,0.3655,0.3671,0.3829,0.3574,0.4152,0.4177,0.42,0.4307,0.4347,0.4382,0,0,0,0,0,0.3123,0.313,0.32,0.3173,0.3182,0.3226,0.3243,0.3252,0.3303,0.3356,0.3374,0.3331,0.3446,0.3468,0.3664,0.3824,0.3562,0.3568,0.4169,0.4188,0.4206,0.4327,0,0,0,0,0,0,0.3125,0.3144,0.3202,0.3206,0.3178,0.3225,0.3235,0.3251,0.3354,0.3369,0.3286,0.329,0.3445,0.3462,0.3478,0.3828,0.3552,0.3559,0.3563,0.4184,0.4199,0.4213,0,0,0,0,0,0,0.314,0.3147,0.3204,0.3209,0.3214,0.3225,0.3234,0.3298,0.3358,0.3281,0.3286,0.3287,0.3443,0.3457,0.347,0.3568,0.3544,0.3551,0.3555,0.3558,0.4196,0.4208,0,0,0,0,0,0,0.3143,0.3149,0.3209,0.3213,0.3217,0.3265,0.3286,0.335,0.3309,0.3279,0.3312,0.3313,0.3439,0.3452,0.3465,0.3556,0.3565,0.3545,0.3549,0.3552,0.3554,0,0,0,0,0,0,0,0.3146,0.3098,0.3175,0.3215,0.3219,0.324,0.3241,0.3243,0.331,0.331,0.3311,0.3312,0.3508,0.3515,0.3522,0.3547,0,0,0.3544,0.3547,0,0,0,0,0,0,0,0,0.3096,0.3098,0.3176,0.3176,0.3177,0.324,0.3241,0.3242,0.331,0.331,0.3311,0.3312,0.351,0.3516,0.3522,0,0,0,0,0,0,0,0,0,0,0,0,0,0,0,0.3176,0.3176,0,0.324,0.3241,0.3242,0.331,0.331,0.3311,0.3312,0.3512,0.3516,0.3521,0,0,0,0,0,0,0,0,0,0,0,0,0,0,0,0,0,0,0,0,0,0,0,0,0,0,0,0,0,0,0,0,0,0,0,0,0,0,0,0,0,0,0,0,0,0,0,0,0,0,0,0,0,0,0,0,0,0,0,0,0,0,0,0,0,0,0,0,0]}],[{"header":{"parameterUnit":"kt","parameterCategory":2,"dx":1,"dy":1,"la1":30.253999710083008,"la2":30.299108505249023,"lo1":-89.0895004272461,"lo2":-89.04439544677734,"nx":28,"ny":28,"refTime":"2022-10-01T21:00:00:Z","depth":"2","parameterNumber":3,"parameterNumberName":"V-component_of_CURRENTS"},"data":[0.1937,0.1996,0.2045,0.2181,0.2165,0.2234,0.2353,0.2463,0.2533,0.2545,0.2429,0.2295,0.1791,0.1217,0.0688,0.0299,0.045,0.0216,0.043,0.0884,0.0937,0.0728,0.0701,0,0,0,0,0,0.1972,0.1985,0.2055,0.2044,0.2143,0.2131,0.2373,0.2438,0.2628,0.2766,0.2784,0.23,0.1776,0.1341,0.0563,0.0119,0.0231,0.0047,0.0343,0.0394,0.0441,0.0392,-0.0071,-0.0072,-0.0073,-0.0074,0,0,0.1886,0.1943,0.1924,0.1948,0.2006,0.2153,0.2225,0.2399,0.261,0.2869,0.2913,0.2839,0.2453,0.1481,0.1034,0.0596,0.0652,0.0557,0.059,0.0628,0.0571,0.0379,0.0164,0.0165,0.0166,0.0166,0.0167,0,0.1721,0.1683,0.183,0.1775,0.1838,0.1978,0.2098,0.2237,0.2457,0.2652,0.2903,0.2928,0.2566,0.2112,0.1453,0.1158,0.1264,0.1009,0.1392,0.124,0.106,0.0955,0.0962,0.0993,0.0999,0.1003,0.1006,0.1008,0.1349,0.1495,0.1606,0.1639,0.1709,0.1824,0.1903,0.2034,0.2175,0.2519,0.2712,0.2787,0.2776,0.2428,0.2003,0.1533,0.1621,0.1171,0.1123,0.1279,0.1168,0.1162,0.1154,0.1069,0.1061,0.1055,0.105,0,0.1142,0.1216,0.1475,0.1652,0.1669,0.1805,0.191,0.2043,0.2165,0.2419,0.2522,0.2741,0.2694,0.2552,0.2435,0.2169,0.1941,0.1727,0.1567,0.1444,0.1223,0.1202,0.1277,0.1266,0.1256,0.1248,0.1241,0,0.0899,0.1109,0.1211,0.137,0.1578,0.169,0.1855,0.1948,0.2105,0.2278,0.2361,0.2535,0.2543,0.2544,0.2317,0.2022,0.2276,0.1703,0.1598,0.1564,0.1518,0.1891,0.1864,0.2138,0.2139,0.214,0.2141,0,0.0667,0.0901,0.1149,0.1245,0.149,0.159,0.1687,0.1812,0.1915,0.2089,0.2214,0.2337,0.2421,0.2382,0.2165,0.213,0.2168,0.2098,0.1622,0.1585,0.1566,0.1516,0.2142,0.2142,0.2142,0.2143,0.2143,0,0.0516,0.0657,0.0924,0.1201,0.126,0.1378,0.1624,0.1727,0.1871,0.1898,0.2007,0.2016,0.215,0.198,0.2031,0.1984,0.182,0.1743,0.1736,0.1448,0.1201,0.107,0.1145,0.1472,0.1469,0.1466,0.1463,0,0.0382,0.0593,0.0641,0.0908,0.1069,0.1128,0.1267,0.1386,0.1437,0.1584,0.1608,0.1705,0.1545,0.1549,0.162,0.157,0.1581,0.151,0.1489,0.1487,0.1189,0.1294,0.1241,0.1113,0.1424,0.1428,0.1431,0,0.027,0.0433,0.045,0.0582,0.0712,0.0811,0.0943,0.1114,0.1211,0.1249,0.1438,0.1429,0.1384,0.1409,0.1323,0.1401,0.1484,0.1281,0.1284,0.1226,0.1611,0.1269,0.126,0.1507,0.1516,0.1523,0.1401,0,0.0309,0.0376,0.0403,0.0502,0.0579,0.0684,0.0758,0.0814,0.084,0.09,0.1007,0.0971,0.1055,0.1003,0.0944,0.112,0.1004,0.0998,0.0983,0.1109,0.1011,0.1036,0.0718,0.0716,0.0714,0.0713,0,0,0.0224,0.0292,0.0252,0.032,0.0418,0.041,0.0534,0.0576,0.0648,0.0707,0.0627,0.0742,0.0697,0.084,0.0841,0.0786,0.0775,0.0809,0.1004,0.1035,0.1065,0.0984,0.101,0.071,0.071,0.0709,0.0709,0,0.0246,0.0207,0.0225,0.0282,0.0333,0.0397,0.0409,0.0478,0.0509,0.0589,0.0562,0.0577,0.0601,0.0646,0.0666,0.0749,0.0712,0.0699,0.0865,0.0983,0.1017,0.1047,0.0974,0.0998,0.0705,0.0705,0.0705,0,0.0224,0.0233,0.0228,0.0263,0.0295,0.039,0.0349,0.0396,0.0494,0.0421,0.0517,0.0479,0.0489,0.0539,0.0551,0.0527,0.0662,0.0585,0.0593,0.07,0.0825,0.0861,0.0894,0.0487,0.0486,0.0486,0,0,0.0231,0.0223,0.0269,0.0269,0.0285,0.0338,0.0369,0.039,0.0423,0.0429,0.044,0.0445,0.0472,0.0475,0.0491,0.0532,0.0561,0.0561,0.0572,0.058,0.0689,0.0816,0.085,0.0484,0.0484,0.0484,0,0,0.0249,0.0269,0.0254,0.0252,0.0305,0.0381,0.0399,0.042,0.0439,0.0418,0.0417,0.0415,0.0444,0.0432,0.041,0.0487,0.044,0.0445,0.0506,0.0518,0.0528,0.066,0.0382,0,0,0,0,0,0.0273,0.0268,0.0253,0.0257,0.0303,0.0383,0.0396,0.042,0.0402,0.0421,0.0417,0.0395,0.0424,0.0405,0.0407,0.0452,0.0461,0.0465,0.0469,0.0556,0.057,0.0581,0,0,0,0,0,0,0.0275,0.0277,0.0256,0.0322,0.0334,0.0381,0.0365,0.0373,0.0399,0.0396,0.0401,0.0396,0.0393,0.0402,0.0405,0.0448,0.0381,0.0463,0.0466,0.0469,0.0561,0.0572,0.0581,0,0,0,0,0,0.0277,0.0279,0.0323,0.0325,0.0335,0.0378,0.0362,0.0369,0.0384,0.0395,0.0393,0.0396,0.0395,0.0394,0.0404,0.0448,0.038,0.0381,0.0465,0.0468,0.047,0.0566,0,0,0,0,0,0,0.0279,0.0301,0.0329,0.0336,0.0299,0.0376,0.038,0.0365,0.038,0.0381,0.039,0.0387,0.0397,0.0396,0.0396,0.045,0.0378,0.0379,0.038,0.0467,0.0469,0.0471,0,0,0,0,0,0,0.0302,0.0306,0.0333,0.0298,0.0302,0.0375,0.0378,0.0395,0.0376,0.0372,0.0372,0.0388,0.0366,0.0398,0.0397,0.0428,0.0377,0.0378,0.0379,0.0379,0.0469,0.047,0,0,0,0,0,0,0.0306,0.031,0.0296,0.0299,0.0302,0.0391,0.0389,0.0412,0.041,0.0368,0.0404,0.0401,0.0366,0.0368,0.0398,0.0429,0.0428,0.0377,0.0378,0.0378,0.0378,0,0,0,0,0,0,0,0.031,0.0251,0.0283,0.03,0.0303,0.0409,0.0411,0.0413,0.041,0.0407,0.0404,0.0402,0.0371,0.0373,0.0374,0.0431,0,0,0.0377,0.0377,0,0,0,0,0,0,0,0,0.0252,0.0251,0.0283,0.0285,0.0286,0.041,0.0411,0.0413,0.0409,0.0407,0.0405,0.0403,0.0372,0.0373,0.0373,0,0,0,0,0,0,0,0,0,0,0,0,0,0,0,0.0283,0.0285,0,0.041,0.0411,0.0413,0.0409,0.0407,0.0405,0.0404,0.0372,0.0373,0.0373,0,0,0,0,0,0,0,0,0,0,0,0,0,0,0,0,0,0,0,0,0,0,0,0,0,0,0,0,0,0,0,0,0,0,0,0,0,0,0,0,0,0,0,0,0,0,0,0,0,0,0,0,0,0,0,0,0,0,0,0,0,0,0,0,0,0,0,0,0]}]],[[{"header":{"parameterUnit":"kt","parameterCategory":2,"dx":1,"dy":1,"la1":30.253999710083008,"la2":30.299108505249023,"lo1":-89.0895004272461,"lo2":-89.04439544677734,"nx":28,"ny":28,"refTime":"2022-10-01T21:00:00:Z","depth":"4","parameterNumber":2,"parameterNumberName":"U-component_of_CURRENTS"},"data":[-0.0045,0.0169,0.0254,0.045,0.0673,0.0814,0.0929,0.1124,0.1177,0.1535,0.1477,0.1731,0.16,0.1805,0.1511,0.1487,0.1416,0.1386,0.138,0.1334,0.1345,0.1355,0.1589,0,0,0,0,0,-0.0061,0.0072,0.0284,0.0606,0.0783,0.0928,0.1116,0.129,0.1636,0.1657,0.1856,0.1762,0.1663,0.1619,0.1483,0.1504,0.1397,0.1327,0.1279,0.1341,0.1353,0.1577,0,0,0,0,0,0,-0.0137,0.0019,0.0315,0.0632,0.0878,0.0972,0.1183,0.1407,0.1605,0.1988,0.1931,0.1969,0.2096,0.1904,0.1601,0.1467,0.1507,0.1423,0.143,0.144,0.1625,0.1565,0.1354,0,0,0,0,0,-0.017,0.001,0.0286,0.0613,0.0936,0.116,0.1511,0.1638,0.1971,0.2226,0.2264,0.2255,0.2117,0.2007,0.1757,0.1488,0.1545,0.1353,0.1362,0.161,0.1552,0.1422,0.1428,0.1399,0.14,0.1401,0.1402,0,-0.0227,-0.0051,0.044,0.063,0.0898,0.1318,0.1536,0.1925,0.2087,0.2347,0.2359,0.2436,0.2482,0.2053,0.1969,0.1635,0.1579,0.1382,0.1648,0.1574,0.1437,0.1441,0.1444,0.1411,0.1411,0.141,0.1409,0,-0.0234,-0.0039,0.0298,0.0777,0.0941,0.1244,0.169,0.1901,0.2214,0.2407,0.2519,0.2673,0.2583,0.2452,0.2215,0.205,0.1786,0.1627,0.1681,0.1534,0.1462,0.1461,0.1427,0.1424,0.1421,0.1418,0.1416,0,-0.0206,-0.001,0.0372,0.054,0.0916,0.1194,0.1593,0.1838,0.214,0.2291,0.2529,0.2628,0.2695,0.2538,0.2335,0.2056,0.2093,0.19,0.1761,0.1909,0.1903,0.1829,0.1814,0.1997,0.2,0.2003,0.2005,0,-0.0232,0.0039,0.0305,0.042,0.0815,0.1073,0.1309,0.1645,0.1811,0.2179,0.2291,0.2545,0.2639,0.2553,0.2315,0.2354,0.2087,0.2066,0.1802,0.1781,0.184,0.1819,0.2009,0.2009,0.201,0.2011,0.2012,0,-0.0222,-0.0044,0.0187,0.0588,0.0681,0.0866,0.134,0.1472,0.1751,0.1892,0.2161,0.2244,0.245,0.2376,0.2345,0.2374,0.2187,0.2046,0.2027,0.1935,0.1676,0.1441,0.1618,0.1618,0.1618,0.1617,0.1617,0,-0.0199,-0.0031,0.0132,0.0363,0.0527,0.0745,0.0917,0.1128,0.1317,0.1525,0.1691,0.1911,0.1924,0.2088,0.2137,0.2047,0.2027,0.2081,0.1736,0.1724,0.1642,0.1808,0.1987,0.1614,0.1615,0.1615,0.1615,0,-0.0166,0.0098,0.0116,0.0297,0.0502,0.06,0.0756,0.0987,0.1174,0.1258,0.1497,0.1686,0.1799,0.1868,0.1927,0.1959,0.1986,0.1837,0.1832,0.166,0.1861,0.1797,0.1789,0.1961,0.1967,0.1971,0.1613,0,-0.0014,0.0138,0.0152,0.0358,0.0452,0.0516,0.0663,0.0764,0.0881,0.0957,0.1204,0.1246,0.1434,0.1467,0.1458,0.1699,0.155,0.1506,0.1414,0.1585,0.1385,0.1388,0.1298,0.1294,0.129,0.1288,0,0,0.0025,0.0196,0.0326,0.0383,0.0486,0.0562,0.064,0.0675,0.0718,0.0823,0.0775,0.1018,0.1018,0.1257,0.1341,0.1285,0.12,0.1344,0.1494,0.1517,0.1539,0.1361,0.1368,0.1282,0.128,0.1279,0.1278,0,0.0103,0.0287,0.0348,0.0407,0.0496,0.0554,0.0578,0.0623,0.0672,0.0733,0.076,0.0874,0.0904,0.1002,0.1047,0.1216,0.112,0.1248,0.1467,0.1463,0.1491,0.1515,0.1347,0.1355,0.127,0.1271,0.1271,0,0.0196,0.0322,0.038,0.0519,0.0537,0.0584,0.0578,0.0583,0.0645,0.0584,0.0655,0.0688,0.0715,0.0817,0.0861,0.0813,0.0999,0.0978,0.0996,0.1073,0.1065,0.1098,0.1127,0.075,0.0748,0.0747,0,0,0.0251,0.0375,0.0476,0.0532,0.0566,0.0585,0.0584,0.0592,0.0584,0.0578,0.0589,0.0622,0.0682,0.0704,0.0722,0.0799,0.073,0.0919,0.0944,0.0964,0.1051,0.105,0.1082,0.0742,0.0742,0.0742,0,0,0.0211,0.0399,0.0479,0.0573,0.0594,0.0572,0.0557,0.0579,0.0564,0.0575,0.0558,0.0553,0.0638,0.061,0.0544,0.0763,0.0656,0.0668,0.0796,0.0826,0.085,0.0953,0.0519,0,0,0,0,0,0.0345,0.0396,0.0471,0.0499,0.0594,0.0577,0.0572,0.0557,0.0579,0.0564,0.056,0.0553,0.0586,0.0524,0.0523,0.0679,0.0679,0.069,0.0701,0.0883,0.0915,0.0942,0,0,0,0,0,0,0.0356,0.0395,0.0466,0.0472,0.0491,0.0576,0.0568,0.0562,0.0577,0.0574,0.0554,0.0551,0.0522,0.0524,0.0523,0.0675,0.0519,0.0683,0.0693,0.0701,0.0894,0.092,0.0943,0,0,0,0,0,0.0364,0.0395,0.0586,0.0465,0.0482,0.0477,0.0567,0.0562,0.0566,0.0544,0.054,0.0561,0.0522,0.0522,0.0524,0.0678,0.0519,0.0519,0.0689,0.0697,0.0704,0.0907,0,0,0,0,0,0,0.037,0.0344,0.0585,0.0584,0.0466,0.0467,0.048,0.0562,0.0533,0.0531,0.0548,0.0545,0.0522,0.0522,0.0522,0.0685,0.0519,0.0519,0.0519,0.0695,0.0701,0.0706,0,0,0,0,0,0,0.0327,0.0345,0.0584,0.0587,0.0586,0.0459,0.0471,0.0473,0.0534,0.0536,0.0535,0.0547,0.0541,0.0522,0.0522,0.0521,0.0519,0.0519,0.0519,0.0519,0.07,0.0704,0,0,0,0,0,0,0.0332,0.0347,0.0586,0.0586,0.0584,0.0563,0.0456,0.0562,0.0526,0.0537,0.0525,0.0525,0.0543,0.0541,0.0522,0.0521,0.0521,0.0519,0.0519,0.0519,0.0519,0,0,0,0,0,0,0,0.0335,0.0276,0.0604,0.0584,0.0583,0.0578,0.0577,0.0575,0.0526,0.0526,0.0525,0.0525,0.052,0.052,0.052,0.0522,0,0,0.0519,0.0519,0,0,0,0,0,0,0,0,0.0266,0.0274,0.0604,0.0604,0.0605,0.0578,0.0577,0.0575,0.0526,0.0526,0.0525,0.0525,0.052,0.052,0.052,0,0,0,0,0,0,0,0,0,0,0,0,0,0,0,0.0604,0.0604,0,0.0578,0.0577,0.0576,0.0526,0.0526,0.0525,0.0525,0.052,0.052,0.052,0,0,0,0,0,0,0,0,0,0,0,0,0,0,0,0,0,0,0,0,0,0,0,0,0,0,0,0,0,0,0,0,0,0,0,0,0,0,0,0,0,0,0,0,0,0,0,0,0,0,0,0,0,0,0,0,0,0,0,0,0,0,0,0,0,0,0,0,0]}],[{"header":{"parameterUnit":"kt","parameterCategory":2,"dx":1,"dy":1,"la1":30.253999710083008,"la2":30.299108505249023,"lo1":-89.0895004272461,"lo2":-89.04439544677734,"nx":28,"ny":28,"refTime":"2022-10-01T21:00:00:Z","depth":"4","parameterNumber":3,"parameterNumberName":"V-component_of_CURRENTS"},"data":[0.0724,0.0779,0.0748,0.0895,0.105,0.1109,0.114,0.1111,0.1061,0.1079,0.0856,0.0818,0.0391,0.0509,-0.0023,-0.0105,-0.0282,-0.068,-0.0681,-0.1019,-0.1036,-0.105,-0.0895,0,0,0,0,0,0.0757,0.0768,0.0804,0.0938,0.1063,0.1146,0.116,0.1178,0.1201,0.109,0.1045,0.074,0.0346,0.0078,-0.0074,-0.0313,-0.0687,-0.05,-0.0777,-0.1029,-0.1048,-0.089,0,0,0,0,0,0,0.0766,0.0743,0.0833,0.0988,0.1109,0.1145,0.1182,0.1196,0.116,0.1011,0.0918,0.0531,0.0315,-0.0044,-0.0315,-0.0505,-0.0597,-0.065,-0.0687,-0.0708,-0.0524,-0.0191,-0.0235,0,0,0,0,0,0.076,0.0852,0.0874,0.1027,0.1167,0.118,0.1275,0.1295,0.1199,0.1132,0.0874,0.0601,0.023,-0.0196,-0.0393,-0.0705,-0.1056,-0.1054,-0.1068,-0.1114,-0.0907,-0.0901,-0.0881,-0.1117,-0.1119,-0.1121,-0.1122,0,0.0782,0.0845,0.095,0.1019,0.1121,0.1213,0.1252,0.1228,0.1175,0.0912,0.081,0.0503,0.0251,-0.0247,-0.0626,-0.0996,-0.102,-0.1099,-0.1147,-0.0933,-0.0928,-0.0903,-0.0878,-0.1136,-0.1135,-0.1134,-0.1133,0,0.0781,0.0851,0.0906,0.0975,0.1027,0.1065,0.1126,0.1074,0.0996,0.0836,0.0815,0.0444,0.011,-0.0236,-0.0726,-0.0845,-0.1148,-0.116,-0.1063,-0.1071,-0.0922,-0.0891,-0.1161,-0.1155,-0.1151,-0.1147,-0.1144,0,0.0772,0.0817,0.0913,0.095,0.0984,0.0963,0.0968,0.087,0.0744,0.0628,0.0433,0.0288,-0.0103,-0.0387,-0.0614,-0.0856,-0.1036,-0.1006,-0.1028,-0.1076,-0.1045,-0.1097,-0.1064,-0.1368,-0.1367,-0.1366,-0.1365,0,0.0771,0.0792,0.0846,0.0845,0.0823,0.085,0.0837,0.0659,0.0568,0.0395,0.0331,0.0048,-0.003,-0.0342,-0.0558,-0.0551,-0.101,-0.1057,-0.0974,-0.0953,-0.1078,-0.1047,-0.1364,-0.1363,-0.1363,-0.1363,-0.1362,0,0.0758,0.0765,0.082,0.0782,0.0779,0.0827,0.0684,0.061,0.0382,0.0323,0.0184,0.0096,-0.0131,-0.0106,-0.0512,-0.0389,-0.0513,-0.0672,-0.0683,-0.0495,-0.0422,-0.0468,-0.0707,-0.0702,-0.0697,-0.0693,-0.0689,0,0.0732,0.076,0.075,0.0766,0.0767,0.0699,0.0624,0.0521,0.0428,0.0312,0.014,0.0086,0.0091,0.011,-0.0107,-0.0297,-0.0443,-0.0281,-0.0563,-0.0569,-0.0339,-0.0528,-0.0476,-0.0623,-0.0632,-0.0638,-0.0642,0,0.0695,0.0711,0.0714,0.0721,0.0694,0.0694,0.0602,0.0512,0.0439,0.0394,0.0276,0.0147,0.0156,0.0101,0.007,-0.0122,-0.0335,-0.0096,-0.0106,-0.0112,-0.0687,-0.0468,-0.0484,-0.0433,-0.0442,-0.0449,-0.0596,0,0.0699,0.069,0.0694,0.0683,0.0673,0.0685,0.063,0.0597,0.058,0.0538,0.0407,0.0365,0.03,0.0232,0.0247,0.0018,0.0082,0.003,0.0079,-0.0073,-0.0104,-0.014,0.0301,0.0302,0.0303,0.0304,0,0,0.0674,0.066,0.0631,0.064,0.0634,0.0632,0.0648,0.0615,0.0638,0.0582,0.0637,0.0504,0.0476,0.0313,0.0285,0.0275,0.0228,0.0344,0.0025,-0.0006,-0.0034,-0.0074,-0.0109,0.0306,0.0306,0.0306,0.0307,0,0.067,0.0619,0.0622,0.0619,0.0629,0.0632,0.0634,0.0663,0.0648,0.0643,0.0624,0.0557,0.0556,0.0469,0.0423,0.0309,0.0303,0.0305,0.0261,0.004,0.0009,-0.002,-0.0064,-0.0096,0.0309,0.0309,0.0309,0,0.0657,0.0631,0.0617,0.0592,0.061,0.062,0.0636,0.066,0.064,0.069,0.0692,0.0672,0.0621,0.0566,0.0543,0.0576,0.0376,0.0484,0.0476,0.0475,0.0248,0.0213,0.0181,0.0588,0.0589,0.059,0,0,0.0657,0.0628,0.0616,0.059,0.0595,0.062,0.0634,0.0659,0.0677,0.0696,0.0719,0.0703,0.0645,0.0646,0.0619,0.0586,0.0526,0.0521,0.0508,0.0497,0.049,0.0263,0.0229,0.0595,0.0595,0.0595,0,0,0.0672,0.0636,0.0628,0.0591,0.0603,0.0631,0.065,0.0666,0.0697,0.0709,0.0729,0.0736,0.0691,0.0698,0.0758,0.062,0.0668,0.0658,0.0644,0.0628,0.0614,0.0615,0.0792,0,0,0,0,0,0.0657,0.0631,0.0622,0.0614,0.0604,0.0618,0.0626,0.0667,0.0684,0.0703,0.072,0.0742,0.0713,0.0769,0.0772,0.0705,0.0654,0.0644,0.0634,0.0605,0.0587,0.0572,0,0,0,0,0,0,0.0654,0.0641,0.0623,0.0636,0.0635,0.0619,0.0649,0.0661,0.0685,0.0693,0.0737,0.0743,0.0764,0.0769,0.0772,0.0706,0.0791,0.065,0.0641,0.0633,0.0599,0.0584,0.0572,0,0,0,0,0,0.0651,0.0641,0.0601,0.064,0.0639,0.0681,0.065,0.0661,0.0695,0.0715,0.0724,0.0724,0.0763,0.0767,0.0771,0.0704,0.079,0.0791,0.0644,0.0637,0.0631,0.0592,0,0,0,0,0,0,0.0649,0.0677,0.0604,0.0607,0.0648,0.0686,0.0689,0.0661,0.0717,0.0725,0.0701,0.0706,0.0761,0.0765,0.0768,0.07,0.0789,0.079,0.079,0.0639,0.0633,0.0628,0,0,0,0,0,0,0.0683,0.0679,0.0606,0.0613,0.0619,0.0691,0.0692,0.0694,0.0717,0.0702,0.0707,0.0702,0.0743,0.0763,0.0766,0.0769,0.0788,0.0789,0.0789,0.0789,0.0634,0.063,0,0,0,0,0,0,0.0683,0.0681,0.0613,0.0617,0.0622,0.0672,0.0695,0.0679,0.0732,0.0699,0.0735,0.0736,0.0739,0.0744,0.0764,0.0766,0.0768,0.0788,0.0789,0.0789,0.0789,0,0,0,0,0,0,0,0.0684,0.0675,0.0572,0.0621,0.0625,0.0637,0.0639,0.0641,0.0732,0.0733,0.0734,0.0736,0.0784,0.0785,0.0786,0.0764,0,0,0.0788,0.0788,0,0,0,0,0,0,0,0,0.0679,0.0676,0.0572,0.0573,0.0573,0.0638,0.0639,0.0641,0.0732,0.0733,0.0734,0.0735,0.0784,0.0785,0.0786,0,0,0,0,0,0,0,0,0,0,0,0,0,0,0,0.0572,0.0573,0,0.0638,0.0639,0.064,0.0732,0.0733,0.0734,0.0735,0.0785,0.0785,0.0786,0,0,0,0,0,0,0,0,0,0,0,0,0,0,0,0,0,0,0,0,0,0,0,0,0,0,0,0,0,0,0,0,0,0,0,0,0,0,0,0,0,0,0,0,0,0,0,0,0,0,0,0,0,0,0,0,0,0,0,0,0,0,0,0,0,0,0,0,0]}]]]